Apalachicola, FL

11:27 PM EDT on April 21, 2018 (GMT -0400)
Apalachicola Municipal

Weather History for KAAF - June, 2012

Change the Weather History Date:

Tuesday, June 26, 2012

  Actual Average Record
Temperature  
Mean Temperature 79 °F 81 °F  
Max Temperature 86 °F 90 °F 98 °F (1950)
Min Temperature 72 °F 73 °F 65 °F (2001)
Degree Days  
Heating Degree Days 0    
Month to date heating degree days 0  
Since 1 June heating degree days 0  
Since 1 July heating degree days 846  
Cooling Degree Days 14    
Month to date cooling degree days 379  
Year to date cooling degree days 1010  
Since 1 June cooling degree days 379  
Growing Degree Days 28 (Base 50)    
Moisture  
Dew Point 70 °F    
Average Humidity 77    
Maximum Humidity 93    
Minimum Humidity 61    
Precipitation  
Precipitation 0.11 in 0.20 in 1.63 in (1938)
Month to date precipitation 21.60 4.45  
Year to date precipitation 31.52 23.83  
Sea Level Pressure  
Sea Level Pressure 29.53 in    
Wind  
Wind Speed 15 mph (NNE)    
Max Wind Speed 30 mph    
Max Gust Speed 41 mph    
Visibility 9 miles    
Events Rain    
T = Trace of Precipitation, MM = Missing Value Source: NWS Daily Summary

Daily Weather History Graph

Daily Weather History Graph

Search for Another Location

Airport or City:

Astronomy

Jun. 26, 2012 Rise Set
Actual Time 6:41 AM EDT 8:44 PM EDT
Civil Twilight 6:14 AM EDT 9:11 PM EDT
Nautical Twilight 5:41 AM EDT 9:44 PM EDT
Astronomical Twilight 5:05 AM EDT 10:20 PM EDT
Moon 1:23 PM EDT (6/26) 12:43 AM EDT (6/26)
Length of Visible Light 14h 57m
Length of Day
14h 02m
Waxing Crescent, 45% of the Moon is Illuminated
Jun 26
Waxing Crescent
Jun 26
First Quarter
Jul 3
Full
Jul 10
Last Quarter
Jul 19
New

Hourly Weather History & Observations

Time (EDT) Temp. Heat Index Dew Point Humidity Pressure Visibility Wind Dir Wind Speed Gust Speed Precip Events Conditions
12:05 AM 71.6 °F - 69.8 °F 94% 29.49 in 3.0 mi ENE 21.9 mph 38.0 mph 0.04 in Rain Heavy Rain
12:26 AM 71.6 °F - 68.0 °F 88% 29.48 in 2.5 mi ENE 25.3 mph 42.6 mph 0.10 in Rain Heavy Rain
12:35 AM 71.6 °F - 68.0 °F 88% 29.48 in 5.0 mi NE 26.5 mph 36.8 mph 0.13 in Rain Rain
12:53 AM 72.0 °F - 68.0 °F 87% 29.49 in 5.0 mi NE 27.6 mph 46.0 mph 0.15 in Rain Light Rain
1:31 AM 73.4 °F - 69.8 °F 88% 29.47 in 7.0 mi NE 17.3 mph 27.6 mph 0.06 in Rain Light Rain
1:43 AM 73.4 °F - 71.6 °F 94% 29.47 in 9.0 mi NE 21.9 mph 28.8 mph 0.06 in Rain Light Rain
1:53 AM 73.0 °F - 71.1 °F 93% 29.47 in 8.0 mi NNE 16.1 mph 27.6 mph 0.07 in Rain Light Rain
2:18 AM 73.4 °F - 69.8 °F 88% 29.45 in 10.0 mi NE 18.4 mph 24.2 mph 0.03 in Rain Light Rain
2:33 AM 73.4 °F - 69.8 °F 88% 29.46 in 10.0 mi NNE 19.6 mph 25.3 mph 0.03 in Rain Light Rain
2:44 AM 73.4 °F - 69.8 °F 88% 29.46 in 10.0 mi NNE 16.1 mph 24.2 mph 0.04 in Rain Light Rain
2:53 AM 73.0 °F - 70.0 °F 90% 29.46 in 10.0 mi NE 19.6 mph 28.8 mph 0.04 in Rain Light Rain
3:41 AM 73.4 °F - 69.8 °F 88% 29.46 in 10.0 mi NNE 19.6 mph 27.6 mph 0.00 in   Overcast
3:53 AM 73.0 °F - 70.0 °F 90% 29.46 in 7.0 mi NE 20.7 mph 28.8 mph 0.00 in Rain Light Rain
4:35 AM 73.4 °F - 69.8 °F 88% 29.47 in 10.0 mi NE 19.6 mph 31.1 mph 0.00 in   Overcast
4:53 AM 73.9 °F - 70.0 °F 87% 29.47 in 10.0 mi NE 15.0 mph 25.3 mph 0.00 in   Overcast
5:53 AM 73.0 °F - 69.1 °F 87% 29.49 in 10.0 mi NNE 17.3 mph 21.9 mph N/A   Scattered Clouds
6:03 AM 73.4 °F - 69.8 °F 88% 29.49 in 10.0 mi NNE 17.3 mph 26.5 mph N/A   Mostly Cloudy
6:13 AM 73.4 °F - 69.8 °F 88% 29.49 in 10.0 mi NNE 19.6 mph 31.1 mph N/A   Overcast
6:28 AM 73.4 °F - 69.8 °F 88% 29.49 in 10.0 mi NNE 18.4 mph 27.6 mph N/A   Overcast
6:40 AM 73.4 °F - 69.8 °F 88% 29.50 in 10.0 mi NNE 18.4 mph 32.2 mph N/A   Overcast
6:53 AM 73.0 °F - 69.1 °F 87% 29.50 in 10.0 mi NE 17.3 mph 26.5 mph N/A   Overcast
7:53 AM 73.9 °F - 69.1 °F 85% 29.51 in 10.0 mi NNE 16.1 mph 23.0 mph N/A   Overcast
8:53 AM 73.9 °F - 69.1 °F 85% 29.52 in 10.0 mi NNE 19.6 mph 29.9 mph N/A   Overcast
9:53 AM 75.0 °F - 70.0 °F 84% 29.52 in 10.0 mi NNE 20.7 mph 33.4 mph N/A   Overcast
10:45 AM 75.2 °F - 71.6 °F 89% 29.52 in 9.0 mi NNE 20.7 mph 26.5 mph N/A   Overcast
10:53 AM 75.0 °F - 71.1 °F 87% 29.53 in 10.0 mi NNE 19.6 mph 28.8 mph N/A   Overcast
11:16 AM 77.0 °F - 71.6 °F 83% 29.53 in 10.0 mi NNE 19.6 mph 27.6 mph N/A   Overcast
11:53 AM 78.1 °F - 72.0 °F 81% 29.55 in 10.0 mi North 19.6 mph 27.6 mph 0.00 in   Overcast
12:53 PM 79.0 °F - 71.1 °F 77% 29.56 in 10.0 mi NNE 21.9 mph 28.8 mph 0.00 in   Overcast
1:53 PM 79.0 °F - 71.1 °F 77% 29.57 in 10.0 mi NNE 19.6 mph 29.9 mph N/A   Overcast
2:30 PM 82.4 °F 87.2 °F 71.6 °F 70% 29.56 in 10.0 mi NNE 17.3 mph 27.6 mph N/A   Overcast
2:53 PM 84.9 °F 90.7 °F 72.0 °F 65% 29.55 in 10.0 mi North 17.3 mph 26.5 mph N/A   Overcast
3:53 PM 86.0 °F 91.5 °F 71.1 °F 61% 29.57 in 10.0 mi NNE 15.0 mph 27.6 mph N/A   Overcast
4:53 PM 84.9 °F 90.1 °F 71.1 °F 63% 29.58 in 10.0 mi North 11.5 mph - N/A   Overcast
5:53 PM 84.9 °F 90.7 °F 72.0 °F 65% 29.59 in 10.0 mi North 10.4 mph - N/A   Overcast
6:53 PM 84.0 °F 88.4 °F 70.0 °F 63% 29.62 in 10.0 mi NNE 17.3 mph 23.0 mph N/A   Overcast
7:53 PM 82.9 °F 87.5 °F 71.1 °F 67% 29.64 in 10.0 mi NNE 9.2 mph - N/A   Overcast
8:53 PM 82.0 °F 86.3 °F 71.1 °F 69% 29.68 in 10.0 mi NE 9.2 mph - N/A   Overcast
9:53 PM 80.1 °F 83.6 °F 71.1 °F 74% 29.71 in 10.0 mi NNE 6.9 mph - N/A   Clear
10:53 PM 78.1 °F - 68.0 °F 71% 29.74 in 10.0 mi NE 11.5 mph - N/A   Clear
11:53 PM 75.9 °F - 68.0 °F 76% 29.75 in 10.0 mi NE 6.9 mph - N/A   Clear